TimeHST,TemperatureF,Dew PointF,Humidity,Sea Level PressureIn,VisibilityMPH,Wind Direction,Wind SpeedMPH,Gust SpeedMPH,PrecipitationIn,Events,Conditions,WindDirDegrees,DateUTC
12:55 AM,70.5,63.9,79,30.06,10.0,Calm,Calm,-,N/A,,Mostly Cloudy,0,2013-05-26 10:55:00
1:55 AM,70.3,64.2,81,30.04,10.0,ENE,4.6,-,N/A,,Mostly Cloudy,60,2013-05-26 11:55:00
2:55 AM,70.2,62.2,76,30.04,10.0,NNW,4.6,-,N/A,,Scattered Clouds,340,2013-05-26 12:55:00
3:55 AM,66.2,61.2,84,30.03,10.0,West,3.5,-,N/A,,Partly Cloudy,270,2013-05-26 13:55:00
4:55 AM,66.6,62.1,85,30.04,10.0,WNW,5.8,-,N/A,,Scattered Clouds,290,2013-05-26 14:55:00
5:55 AM,66.2,61.5,85,30.05,10.0,West,5.8,-,N/A,,Overcast,280,2013-05-26 15:55:00
6:55 AM,69.4,62.4,78,30.06,10.0,NW,4.6,-,N/A,,Overcast,310,2013-05-26 16:55:00
7:55 AM,72.5,63.5,73,30.07,10.0,Calm,Calm,-,N/A,,Scattered Clouds,0,2013-05-26 17:55:00
8:55 AM,76.1,62.2,62,30.07,10.0,NE,8.1,-,N/A,,Clear,50,2013-05-26 18:55:00
9:55 AM,78.1,62.6,59,30.07,10.0,ENE,8.1,-,N/A,,Partly Cloudy,70,2013-05-26 19:55:00
10:55 AM,78.8,61.9,56,30.06,10.0,East,12.7,-,N/A,,Clear,100,2013-05-26 20:55:00
11:55 AM,79.9,61.9,54,30.05,10.0,East,16.1,-,N/A,,Clear,80,2013-05-26 21:55:00
12:55 PM,80.4,63.0,55,30.04,10.0,East,12.7,23.0,N/A,,Mostly Cloudy,90,2013-05-26 22:55:00
1:55 PM,79.9,63.5,57,30.03,10.0,East,13.8,21.9,N/A,,Clear,80,2013-05-26 23:55:00
2:55 PM,80.4,63.0,55,30.01,10.0,ENE,19.6,-,N/A,,Clear,70,2013-05-27 00:55:00
3:55 PM,80.2,63.5,57,30.00,10.0,ENE,17.3,-,N/A,,Clear,60,2013-05-27 01:55:00
4:55 PM,79.5,63.3,58,30.00,10.0,ENE,16.1,20.7,N/A,,Clear,70,2013-05-27 02:55:00
5:55 PM,76.8,63.9,64,30.01,10.0,East,13.8,-,N/A,,Clear,80,2013-05-27 03:55:00
6:55 PM,73.9,63.7,70,30.03,10.0,ENE,6.9,-,N/A,,Clear,70,2013-05-27 04:55:00
7:55 PM,72.5,63.5,73,30.06,10.0,Calm,Calm,-,N/A,,Clear,0,2013-05-27 05:55:00
8:55 PM,72.5,64.2,75,30.07,10.0,ENE,4.6,-,N/A,,Mostly Cloudy,60,2013-05-27 06:55:00
9:55 PM,72.3,64.2,76,30.09,10.0,East,5.8,-,N/A,,Clear,80,2013-05-27 07:55:00
10:55 PM,71.1,64.6,80,30.10,10.0,Calm,Calm,-,N/A,,Scattered Clouds,0,2013-05-27 08:55:00
11:55 PM,68.0,63.5,85,30.09,10.0,Calm,Calm,-,N/A,,Clear,0,2013-05-27 09:55:00